User: anonymous   Login
Location: Fort Wayne
(41.1310°N, 85.1290°W)
Time: 15:33:40
(UTC-04:00)
Language:

OAO 2 Rocket - Orbit

View from above orbital plane
View from above orbital plane
View from above satellite
View from above satellite

Ground track
Ground track

The orbit data is extracted from the following two-line orbital elements,

1 03598U 68110B   15087.85259934  .00000963  00000-0  22661-3 0  9995
2 03598 034.9928 237.8183 0048988 128.2703 232.2411 14.53969858448306
Epoch (UTC): 28 March 2015 20:27:44
Eccentricity: 0.0048988
inclination: 34.9928°
perigee height: 678 km
apogee height: 747 km
right ascension of ascending node: 237.8183°
argument of perigee: 128.2703°
revolutions per day: 14.53969858
mean anomaly at epoch: 232.2411°
orbit number at epoch: 44830

The dashed part of the orbit path shows where the satellite is in the earth's shadow,  

DLR